Time,TemperatureF,DewpointF,PressureIn,WindDirection,WindDirectionDegrees,WindSpeedMPH,WindSpeedGustMPH,Humidity,HourlyPrecipIn,Conditions,Clouds,dailyrainin,SoftwareType,DateUTC
2013-09-01 00:14:00,53.1,37.4,29.80,WNW,292,0.0,-999.0,55,-99.99,,,0.00,Acu-Link.com,2013-09-01 07:14:00,
2013-09-01 00:30:00,52.2,37.0,29.81,WNW,292,0.0,-999.0,56,-99.99,,,0.00,Acu-Link.com,2013-09-01 07:30:00,
2013-09-01 00:45:00,51.4,36.2,29.81,WNW,292,0.0,-999.0,56,-99.99,,,0.00,Acu-Link.com,2013-09-01 07:45:00,
2013-09-01 01:00:00,51.3,37.0,29.81,WSW,247,0.0,-999.0,58,-99.99,,,0.00,Acu-Link.com,2013-09-01 08:00:00,
2013-09-01 01:16:00,51.1,36.8,29.80,WSW,247,0.0,-999.0,58,-99.99,,,0.00,Acu-Link.com,2013-09-01 08:16:00,
2013-09-01 01:32:00,50.7,37.3,29.80,WSW,247,0.0,-999.0,60,-99.99,,,0.00,Acu-Link.com,2013-09-01 08:32:00,
2013-09-01 01:47:00,50.0,36.7,29.81,ESE,112,0.0,-999.0,60,-99.99,,,0.00,Acu-Link.com,2013-09-01 08:47:00,
2013-09-01 02:02:00,50.0,37.1,29.81,WNW,292,0.0,-999.0,61,-99.99,,,0.00,Acu-Link.com,2013-09-01 09:02:00,
2013-09-01 02:17:00,49.3,35.6,29.81,WNW,292,0.0,-999.0,59,-99.99,,,0.00,Acu-Link.com,2013-09-01 09:17:00,
2013-09-01 02:32:00,48.9,36.9,29.81,NW,315,0.0,-999.0,63,-99.99,,,0.00,Acu-Link.com,2013-09-01 09:32:00,
2013-09-01 02:48:00,48.6,36.6,29.80,NW,315,0.0,-999.0,63,-99.99,,,0.00,Acu-Link.com,2013-09-01 09:48:00,
2013-09-01 03:03:00,48.0,36.8,29.81,NW,315,0.0,-999.0,65,-99.99,,,0.00,Acu-Link.com,2013-09-01 10:03:00,
2013-09-01 03:18:00,47.5,37.5,29.81,WNW,292,0.0,-999.0,68,-99.99,,,0.00,Acu-Link.com,2013-09-01 10:18:00,
2013-09-01 03:33:00,47.1,36.7,29.81,WNW,292,0.0,-999.0,67,-99.99,,,0.00,Acu-Link.com,2013-09-01 10:33:00,
2013-09-01 03:49:00,47.1,36.7,29.81,WNW,292,0.0,-999.0,67,-99.99,,,0.00,Acu-Link.com,2013-09-01 10:49:00,
2013-09-01 04:04:00,46.8,36.4,29.81,WNW,292,0.0,-999.0,67,-99.99,,,0.00,Acu-Link.com,2013-09-01 11:04:00,
2013-09-01 04:19:00,46.6,36.6,29.81,ESE,112,0.0,-999.0,68,-99.99,,,0.00,Acu-Link.com,2013-09-01 11:19:00,
2013-09-01 04:35:00,46.0,36.4,29.81,South,180,0.0,-999.0,69,-99.99,,,0.00,Acu-Link.com,2013-09-01 11:35:00,
2013-09-01 05:05:00,45.5,37.0,29.81,SSE,157,0.0,-999.0,72,-99.99,,,0.00,Acu-Link.com,2013-09-01 12:05:00,
2013-09-01 05:21:00,45.0,35.5,29.81,WNW,292,0.0,-999.0,69,-99.99,,,0.00,Acu-Link.com,2013-09-01 12:21:00,
2013-09-01 05:36:00,44.8,36.3,29.81,SW,225,0.0,-999.0,72,-99.99,,,0.00,Acu-Link.com,2013-09-01 12:36:00,
2013-09-01 05:51:00,44.8,36.3,29.81,NNW,337,0.0,-999.0,72,-99.99,,,0.00,Acu-Link.com,2013-09-01 12:51:00,
2013-09-01 06:07:00,44.6,36.1,29.82,NW,315,0.0,-999.0,72,-99.99,,,0.00,Acu-Link.com,2013-09-01 13:07:00,
2013-09-01 06:22:00,44.2,36.4,29.81,West,270,0.0,-999.0,74,-99.99,,,0.00,Acu-Link.com,2013-09-01 13:22:00,
2013-09-01 06:37:00,44.4,36.3,29.81,ESE,112,0.0,-999.0,73,-99.99,,,0.00,Acu-Link.com,2013-09-01 13:37:00,
2013-09-01 06:53:00,44.8,38.0,29.81,ESE,112,0.0,-999.0,77,-99.99,,,0.00,Acu-Link.com,2013-09-01 13:53:00,
2013-09-01 07:08:00,48.0,39.1,29.82,West,270,0.0,-999.0,71,-99.99,,,0.00,Acu-Link.com,2013-09-01 14:08:00,
2013-09-01 07:23:00,54.3,41.6,29.81,East,90,1.7,-999.0,62,-99.99,,,0.00,Acu-Link.com,2013-09-01 14:23:00,
2013-09-01 07:38:00,55.9,41.8,29.81,NW,315,0.0,-999.0,59,-99.99,,,0.00,Acu-Link.com,2013-09-01 14:38:00,
2013-09-01 07:54:00,58.5,42.9,29.81,East,90,2.2,-999.0,56,-99.99,,,0.00,Acu-Link.com,2013-09-01 14:54:00,
2013-09-01 08:09:00,63.5,44.0,29.81,East,90,2.7,-999.0,49,-99.99,,,0.00,Acu-Link.com,2013-09-01 15:09:00,
2013-09-01 08:24:00,60.8,43.6,29.81,East,90,2.7,-999.0,53,-99.99,,,0.00,Acu-Link.com,2013-09-01 15:24:00,
2013-09-01 08:40:00,60.6,43.9,29.80,ESE,112,2.7,-999.0,54,-99.99,,,0.00,Acu-Link.com,2013-09-01 15:40:00,
2013-09-01 08:55:00,62.6,45.2,29.80,ESE,112,2.2,-999.0,53,-99.99,,,0.00,Acu-Link.com,2013-09-01 15:55:00,
2013-09-01 09:10:00,63.9,46.4,29.79,East,90,2.7,-999.0,53,-99.99,,,0.00,Acu-Link.com,2013-09-01 16:10:00,
2013-09-01 09:25:00,67.1,47.8,29.79,ESE,112,2.7,-999.0,50,-99.99,,,0.00,Acu-Link.com,2013-09-01 16:25:00,
2013-09-01 09:41:00,69.6,49.6,29.78,ESE,112,2.2,-999.0,49,-99.99,,,0.00,Acu-Link.com,2013-09-01 16:41:00,
2013-09-01 09:56:00,70.5,49.3,29.78,WNW,292,1.1,-999.0,47,-99.99,,,0.00,Acu-Link.com,2013-09-01 16:56:00,
2013-09-01 10:11:00,74.1,49.5,29.76,ESE,112,2.2,-999.0,42,-99.99,,,0.00,Acu-Link.com,2013-09-01 17:11:00,
2013-09-01 10:26:00,74.8,50.2,29.77,West,270,1.7,-999.0,42,-99.99,,,0.00,Acu-Link.com,2013-09-01 17:26:00,
2013-09-01 10:42:00,75.9,51.1,29.76,ESE,112,2.7,-999.0,42,-99.99,,,0.00,Acu-Link.com,2013-09-01 17:42:00,
2013-09-01 10:57:00,77.4,51.2,29.76,ENE,67,2.7,-999.0,40,-99.99,,,0.00,Acu-Link.com,2013-09-01 17:57:00,
2013-09-01 11:12:00,79.0,52.6,29.73,ESE,112,2.7,-999.0,40,-99.99,,,0.00,Acu-Link.com,2013-09-01 18:12:00,
2013-09-01 11:27:00,80.2,51.5,29.73,East,90,2.7,-999.0,37,-99.99,,,0.00,Acu-Link.com,2013-09-01 18:27:00,
2013-09-01 11:43:00,81.9,52.3,29.71,West,270,0.0,-999.0,36,-99.99,,,0.00,Acu-Link.com,2013-09-01 18:43:00,
2013-09-01 11:58:00,83.3,52.8,29.71,East,90,2.7,-999.0,35,-99.99,,,0.00,Acu-Link.com,2013-09-01 18:58:00,
2013-09-01 12:14:00,84.2,51.9,29.71,NE,45,3.7,-999.0,33,-99.99,,,0.00,Acu-Link.com,2013-09-01 19:14:00,
2013-09-01 12:29:00,85.6,53.2,29.71,NNE,22,0.0,-999.0,33,-99.99,,,0.00,Acu-Link.com,2013-09-01 19:29:00,
2013-09-01 12:44:00,87.1,51.9,29.71,East,90,3.2,-999.0,30,-99.99,,,0.00,Acu-Link.com,2013-09-01 19:44:00,
2013-09-01 12:59:00,88.7,54.1,29.71,SSW,202,0.0,-999.0,31,-99.99,,,0.00,Acu-Link.com,2013-09-01 19:59:00,
2013-09-01 13:14:00,89.8,51.3,29.69,ESE,112,3.7,-999.0,27,-99.99,,,0.00,Acu-Link.com,2013-09-01 20:14:00,
2013-09-01 13:30:00,91.2,51.5,29.70,East,90,4.7,-999.0,26,-99.99,,,0.00,Acu-Link.com,2013-09-01 20:30:00,
2013-09-01 13:45:00,90.9,53.2,29.67,West,270,3.2,-999.0,28,-99.99,,,0.00,Acu-Link.com,2013-09-01 20:45:00,
2013-09-01 14:00:00,91.9,51.0,29.68,ESE,112,2.2,-999.0,25,-99.99,,,0.00,Acu-Link.com,2013-09-01 21:00:00,
2013-09-01 14:16:00,92.8,51.8,29.68,NNE,22,1.7,-999.0,25,-99.99,,,0.00,Acu-Link.com,2013-09-01 21:16:00,
2013-09-01 14:31:00,93.0,49.7,29.67,ESE,112,2.7,-999.0,23,-99.99,,,0.00,Acu-Link.com,2013-09-01 21:31:00,
2013-09-01 14:46:00,94.3,50.8,29.66,ESE,112,5.3,-999.0,23,-99.99,,,0.00,Acu-Link.com,2013-09-01 21:46:00,
2013-09-01 15:02:00,93.2,52.1,29.66,NE,45,2.2,-999.0,25,-99.99,,,0.00,Acu-Link.com,2013-09-01 22:02:00,
2013-09-01 15:17:00,94.8,51.2,29.65,NNE,22,4.2,-999.0,23,-99.99,,,0.00,Acu-Link.com,2013-09-01 22:17:00,
2013-09-01 15:32:00,93.7,52.5,29.65,NE,45,1.7,-999.0,25,-99.99,,,0.00,Acu-Link.com,2013-09-01 22:32:00,
2013-09-01 15:47:00,93.7,51.4,29.65,North,0,2.2,-999.0,24,-99.99,,,0.00,Acu-Link.com,2013-09-01 22:47:00,
2013-09-01 16:03:00,92.1,52.2,29.65,ESE,112,2.2,-999.0,26,-99.99,,,0.00,Acu-Link.com,2013-09-01 23:03:00,
2013-09-01 16:18:00,93.6,46.4,29.65,South,180,5.3,-999.0,20,-99.99,,,0.00,Acu-Link.com,2013-09-01 23:18:00,
2013-09-01 16:34:00,92.5,45.5,29.64,ESE,112,2.2,-999.0,20,-99.99,,,0.00,Acu-Link.com,2013-09-01 23:34:00,
2013-09-01 16:49:00,91.8,45.0,29.65,West,270,1.1,-999.0,20,-99.99,,,0.00,Acu-Link.com,2013-09-01 23:49:00,
2013-09-01 17:04:00,91.0,46.8,29.64,NNW,337,3.2,-999.0,22,-99.99,,,0.00,Acu-Link.com,2013-09-02 00:04:00,
2013-09-01 17:19:00,90.7,47.8,29.63,SSE,157,2.2,-999.0,23,-99.99,,,0.00,Acu-Link.com,2013-09-02 00:19:00,
2013-09-01 17:34:00,89.4,48.9,29.64,South,180,0.0,-999.0,25,-99.99,,,0.00,Acu-Link.com,2013-09-02 00:34:00,
2013-09-01 17:50:00,88.5,48.2,29.63,ESE,112,6.3,-999.0,25,-99.99,,,0.00,Acu-Link.com,2013-09-02 00:50:00,
2013-09-01 18:05:00,88.2,47.9,29.63,South,180,1.7,-999.0,25,-99.99,,,0.00,Acu-Link.com,2013-09-02 01:05:00,
2013-09-01 18:20:00,87.4,46.1,29.63,South,180,1.1,-999.0,24,-99.99,,,0.00,Acu-Link.com,2013-09-02 01:20:00,
2013-09-01 18:35:00,87.3,44.9,29.63,ESE,112,5.3,-999.0,23,-99.99,,,0.00,Acu-Link.com,2013-09-02 01:35:00,
2013-09-01 18:50:00,86.7,45.6,29.63,SE,135,1.1,-999.0,24,-99.99,,,0.00,Acu-Link.com,2013-09-02 01:50:00,
2013-09-01 19:06:00,85.5,45.6,29.64,South,180,1.1,-999.0,25,-99.99,,,0.00,Acu-Link.com,2013-09-02 02:06:00,
2013-09-01 19:21:00,83.8,46.2,29.64,ESE,112,0.0,-999.0,27,-99.99,,,0.00,Acu-Link.com,2013-09-02 02:21:00,
2013-09-01 19:36:00,81.9,49.1,29.65,ESE,112,0.0,-999.0,32,-99.99,,,0.00,Acu-Link.com,2013-09-02 02:36:00,
2013-09-01 19:51:00,79.7,50.4,29.65,ESE,112,0.0,-999.0,36,-99.99,,,0.00,Acu-Link.com,2013-09-02 02:51:00,
2013-09-01 20:07:00,76.8,48.5,29.66,ESE,112,0.0,-999.0,37,-99.99,,,0.00,Acu-Link.com,2013-09-02 03:07:00,
2013-09-01 20:22:00,74.5,47.2,29.65,ESE,112,0.0,-999.0,38,-99.99,,,0.00,Acu-Link.com,2013-09-02 03:22:00,
2013-09-01 20:37:00,73.0,49.2,29.66,ESE,112,1.7,-999.0,43,-99.99,,,0.00,Acu-Link.com,2013-09-02 03:37:00,
2013-09-01 20:53:00,71.4,47.7,29.67,NNW,337,0.0,-999.0,43,-99.99,,,0.00,Acu-Link.com,2013-09-02 03:53:00,
2013-09-01 21:08:00,70.2,49.6,29.67,WSW,247,0.0,-999.0,48,-99.99,,,0.00,Acu-Link.com,2013-09-02 04:08:00,
2013-09-01 21:23:00,69.1,50.2,29.67,ESE,112,0.0,-999.0,51,-99.99,,,0.00,Acu-Link.com,2013-09-02 04:23:00,
2013-09-01 21:38:00,67.6,48.8,29.67,North,0,0.0,-999.0,51,-99.99,,,0.00,Acu-Link.com,2013-09-02 04:38:00,
2013-09-01 21:54:00,66.7,49.0,29.68,East,90,0.0,-999.0,53,-99.99,,,0.00,Acu-Link.com,2013-09-02 04:54:00,
2013-09-01 22:09:00,65.7,48.6,29.68,ESE,112,0.0,-999.0,54,-99.99,,,0.00,Acu-Link.com,2013-09-02 05:09:00,
2013-09-01 22:24:00,64.2,45.7,29.69,ESE,112,0.0,-999.0,51,-99.99,,,0.00,Acu-Link.com,2013-09-02 05:24:00,
2013-09-01 22:40:00,63.3,45.4,29.69,NW,315,0.0,-999.0,52,-99.99,,,0.00,Acu-Link.com,2013-09-02 05:40:00,
2013-09-01 22:55:00,62.6,47.2,29.69,NNW,337,0.0,-999.0,57,-99.99,,,0.00,Acu-Link.com,2013-09-02 05:55:00,
2013-09-01 23:10:00,61.9,47.0,29.69,East,90,0.0,-999.0,58,-99.99,,,0.00,Acu-Link.com,2013-09-02 06:10:00,
2013-09-01 23:26:00,60.8,44.5,29.69,ESE,112,0.0,-999.0,55,-99.99,,,0.00,Acu-Link.com,2013-09-02 06:26:00,
2013-09-01 23:41:00,60.1,45.7,29.69,ESE,112,0.0,-999.0,59,-99.99,,,0.00,Acu-Link.com,2013-09-02 06:41:00,
2013-09-01 23:56:00,59.9,44.6,29.69,NW,315,0.0,-999.0,57,-99.99,,,0.00,Acu-Link.com,2013-09-02 06:56:00,